星链-35986(STARLINK-35986)

导读 | 豆包AI

STARLINK-35986是美国SpaceX星链星座的成员卫星,星链项目旨在构建覆盖全球的卫星互联网星座,为全球用户提供高速低延迟的宽带服务。该卫星于2025年12月2日发射,进入近地轨道运行,延续了星链星座批量部署、持续拓展网络覆盖能力的进程,助力完善全球卫星互联网基础设施布局。

基本信息
目录编号:
66853
目录名称:
STARLINK-35986
国际标识:
2025-281F
轨道中心:
EARTH
卫星名称:
星链-35986
卫星全名:
星链-35986(STARLINK-35986)
卫星状态:
在轨 (已飞行148 天)
发射日期:
2025-12-02 UTC
国别 :
美国 (US)
星等 :
--
轨道信息
数据来源 国际轨道数据
星历时间: 2026-04-29T05:06:46+0800
4小时前
查看轨道信息
半长轴: 6861.151km
偏心率: 0.0000467
轨道倾角: 43.006°
近地点辐角 258.797°
升交点赤经 59.833°
平近点角 101.283°
近地点: 482.693km
远地点: 483.335km
周期: 94.266分钟
每日圈数: 15.27592
详细信息
固有亮度:
5
最大亮度:
2.5
卫星平台:
Starlink V1.0
覆盖范围:
全球
运营商:
太空探索技术公司
运营商所在国:
美国
制造商(研发单位):
太空探索技术公司
制造商所在国:
美国
使用方式:
暂无
卫星简介
Starlink 计划是 SpaceX 推出的全球卫星互联网项目,通过发射低轨道卫星,为全球尤其是偏远地区提供高速、低延迟的互联网服务。自 2019 年起,Starlink 已部署数千颗卫星,旨在缩小全球数字鸿沟,推动互联网普及。该项目还为军事、航空等行业提供通信支持,带来广泛经济效益。
2D轨道图
3D轨道图
轨道高度分析图
轨道倾角分析图
轨道综合分析图
查看轨道综合分析图